This is the latest recevied weather packets stored in our database for station/object NN3A-3. If no packets are shown the sender has not sent any weather packets the latest 10 day(s).
| Time | Temp. | Humidity | Pressure | Rain* | Wind** | Luminosity | Snow |
|---|---|---|---|---|---|---|---|
| 1778176003 | 17.22° C | 60% | 1008.3 hPa | 0 mm | - | - | - |
| 1778174803 | 17.78° C | 61% | 1008.6 hPa | 0 mm | - | - | - |
| 1778174504 | 17.78° C | 59% | 1008.6 hPa | 0 mm | - | - | - |
| 1778174204 | 18.33° C | 63% | 1008.6 hPa | 0 mm | - | - | - |
| 1778173904 | 17.78° C | 64% | 1008.6 hPa | 0 mm | - | - | - |
| 1778173304 | 16.11° C | 63% | 1008.6 hPa | 0 mm | - | - | - |
| 1778172704 | 17.22° C | 63% | 1008.6 hPa | 0 mm | - | - | - |
| 1778172405 | 17.22° C | 62% | 1008.6 hPa | 0 mm | - | - | - |
| 1778172105 | 16.67° C | 61% | 1008.6 hPa | 0 mm | - | - | - |
| 1778171504 | 16.67° C | 61% | 1008.9 hPa | 0 mm | - | - | - |
| 1778170606 | 17.78° C | 60% | 1008.9 hPa | 0 mm | - | - | - |
| 1778170306 | 18.33° C | 61% | 1008.9 hPa | 0 mm | - | - | - |
| 1778169406 | 17.22° C | 62% | 1008.9 hPa | 0 mm | - | - | - |
| 1778169106 | 17.78° C | 61% | 1008.9 hPa | 0 mm | - | - | - |
| 1778168806 | 16.67° C | 61% | 1009.3 hPa | 0 mm | - | - | - |
| 1778168507 | 15.56° C | 62% | 1009.3 hPa | 0 mm | - | - | - |
| 1778167907 | 16.11° C | 61% | 1009.3 hPa | 0 mm | - | - | - |
| 1778167307 | 17.22° C | 59% | 1009.3 hPa | 0 mm | - | - | - |
| 1778167007 | 17.22° C | 61% | 1009.3 hPa | 0 mm | - | - | - |
| 1778166707 | 17.22° C | 61% | 1009.6 hPa | 0 mm | - | - | - |
| 1778166108 | 16.67° C | 61% | 1009.6 hPa | 0 mm | - | - | - |
| 1778165808 | 16.67° C | 61% | 1009.6 hPa | 0 mm | - | - | - |
| 1778165508 | 15.56° C | 62% | 1009.6 hPa | 0 mm | - | - | - |
| 1778165208 | 16.11° C | 63% | 1010 hPa | 0 mm | - | - | - |
| 1778164909 | 15.56° C | 59% | 1010 hPa | 0 mm | - | - | - |
* Rain latest hour (hover to see other rain measurements)
** Current wind speed in m/s (hover to see current wind gust speed)